Location: Franzen
(48.6167°N, 15.3833°E)
Time: 17:14:24
(UTC+00:00)

Cosmos 1953 Rocket - Visible Passes

Search period start: 04 August 2021 00:00
Search period end: 14 August 2021 00:00
Orbit: 604 x 635 km, 82.5° (Epoch: 04 August)

Date Brightness Start Highest point End Pass type
(mag) Time Alt. Az. Time Alt. Az. Time Alt. Az.
05 Aug 6.9 19:18:03 10° W 19:20:33 15° WNW 19:23:03 10° NNW visible
08 Aug 7.4 02:42:11 10° NE 02:43:04 10° ENE 02:43:57 10° ENE visible
09 Aug 6.7 02:57:57 10° NNE 03:00:54 17° ENE 03:03:49 10° ESE visible
12 Aug 7.1 02:13:51 10° NE 02:15:07 11° ENE 02:16:23 10° ENE visible
13 Aug 6.6 02:29:53 10° NNE 02:32:56 18° ENE 02:35:58 10° ESE visible
